Montrose, CO

8:02 AM MST on February 24, 2018 (GMT -0700)
Montrose Regional

Weather History for KMTJ - June, 2013

Change the Weather History Date:

Wednesday, June 12, 2013

  Actual Average Record
Temperature  
Mean Temperature 74 °F 67 °F  
Max Temperature 94 °F 84 °F 94 °F (2013)
Min Temperature 54 °F 51 °F 39 °F (2008)
Degree Days  
Heating Degree Days 0 2  
Month to date heating degree days 9 30  
Since 1 June heating degree days 9 30  
Since 1 July heating degree days 6124 6194  
Cooling Degree Days 9 4  
Month to date cooling degree days 68 35  
Year to date cooling degree days 93 52  
Since 1 June cooling degree days 68 35  
Growing Degree Days 24 (Base 50)    
Moisture  
Dew Point 24 °F    
Average Humidity 21    
Maximum Humidity 36    
Minimum Humidity 6    
Precipitation  
Precipitation 0.00 in 0.02 in 0.28 in (2007)
Month to date precipitation T 0.26  
Year to date precipitation 2.65 4.56  
Sea Level Pressure  
Sea Level Pressure 29.89 in    
Wind  
Wind Speed 10 mph (South)    
Max Wind Speed 21 mph    
Max Gust Speed 32 mph    
Visibility 10 miles    
Events      
T = Trace of Precipitation, MM = Missing Value Source: NWS Daily Summary

Daily Weather History Graph

Daily Weather History Graph

Search for Another Location

Airport or City:

Trip Planner

Search our weather history database for the weather conditions in past years. The results will help you decide how hot, cold, wet, or windy it might be!

Date:

Astronomy

Jun. 12, 2013 Rise Set
Actual Time 5:46 AM MDT 8:36 PM MDT
Civil Twilight 5:15 AM MDT 9:08 PM MDT
Nautical Twilight 4:35 AM MDT 9:47 PM MDT
Astronomical Twilight 3:49 AM MDT 10:33 PM MDT
Moon 9:26 AM MDT (6/12) 11:16 PM MDT (6/12)
Length of Visible Light 15h 52m
Length of Day
14h 49m
Waxing Crescent, 14% of the Moon is Illuminated
Jun 12
Waxing Crescent
Jun 16
First Quarter
Jun 23
Full
Jun 29
Last Quarter
Jul 8
New

Hourly Weather History & Observations

Time (MDT) Temp. Dew Point Humidity Pressure Visibility Wind Dir Wind Speed Gust Speed Precip Events Conditions
12:53 AM 64.0 °F 25.0 °F 23% 29.88 in 10.0 mi ESE 8.1 mph - N/A   Clear
1:53 AM 64.9 °F 25.0 °F 22% 29.88 in 10.0 mi ESE 15.0 mph - N/A   Clear
2:53 AM 62.1 °F 27.0 °F 26% 29.89 in 10.0 mi SE 10.4 mph - N/A   Clear
3:53 AM 61.0 °F 26.1 °F 26% 29.89 in 10.0 mi SE 6.9 mph - N/A   Clear
4:53 AM 57.9 °F 26.1 °F 30% 29.91 in 10.0 mi SE 5.8 mph - N/A   Clear
5:53 AM 55.9 °F 28.0 °F 34% 29.93 in 10.0 mi SE 8.1 mph - N/A   Clear
6:53 AM 57.0 °F 30.9 °F 37% 29.95 in 10.0 mi SSE 6.9 mph - N/A   Clear
7:53 AM 66.0 °F 30.9 °F 27% 29.94 in 10.0 mi ESE 5.8 mph - N/A   Clear
8:53 AM 72.0 °F 30.9 °F 22% 29.94 in 10.0 mi Calm Calm - N/A   Clear
9:53 AM 79.0 °F 33.1 °F 19% 29.94 in 10.0 mi Calm Calm - N/A   Clear
10:53 AM 80.1 °F 30.9 °F 17% 29.93 in 10.0 mi North 6.9 mph - N/A   Clear
11:53 AM 87.1 °F 28.0 °F 12% 29.91 in 10.0 mi Variable 4.6 mph - N/A   Clear
12:53 PM 91.9 °F 21.9 °F 8% 29.88 in 10.0 mi SW 16.1 mph 24.2 mph N/A   Clear
1:53 PM 93.0 °F 21.0 °F 7% 29.86 in 10.0 mi SW 12.7 mph 21.9 mph N/A   Clear
2:53 PM 91.9 °F 19.0 °F 7% 29.86 in 10.0 mi West 18.4 mph 23.0 mph N/A   Clear
3:53 PM 91.0 °F 19.0 °F 7% 29.85 in 10.0 mi West 17.3 mph 24.2 mph N/A   Clear
4:53 PM 90.0 °F 17.1 °F 7% 29.86 in 10.0 mi SW 13.8 mph 20.7 mph N/A   Clear
5:53 PM 90.0 °F 15.1 °F 6% 29.87 in 10.0 mi WSW 11.5 mph 20.7 mph N/A   Clear
6:53 PM 88.0 °F 16.0 °F 7% 29.87 in 10.0 mi WSW 16.1 mph - N/A   Clear
7:53 PM 84.9 °F 19.9 °F 9% 29.86 in 10.0 mi SSW 10.4 mph - N/A   Clear
8:53 PM 82.0 °F 21.0 °F 10% 29.87 in 10.0 mi South 10.4 mph - N/A   Clear
9:53 PM 75.9 °F 24.1 °F 15% 29.87 in 10.0 mi SW 6.9 mph - N/A   Clear
10:53 PM 70.0 °F 25.0 °F 18% 29.89 in 10.0 mi ESE 8.1 mph - N/A   Clear
11:53 PM 69.1 °F 25.0 °F 19% 29.87 in 10.0 mi SE 9.2 mph - N/A   Clear